Location: LDNL
(36.4545°S, 141.6685°E)
Time: 03:41:44
(UTC+11:00)

Vanguard 2 - Pass Details

Date: 19 August 2022
Orbit: 552 x 2934 km, 32.9° (Epoch: 06 October)

Event Time Altitude Azimuth Distance (km) Brightness Sun altitude
Rises 14:37:48 0° 308° (NW) 6,277 13.2 33.1°
Reaches altitude 10° 14:41:46 10° 311° (NW) 5,463 13.3 32.7°
Maximum altitude 14:58:34 58° 24° (NNE) 3,260 11.4 30.5°
Drops below altitude 10° 15:14:22 10° 97° (E) 5,186 11.4 28.4°
Sets 15:17:59 0° 101° (E) 5,955 11.6 27.9°
